[[{"header":{"parameterUnit":"m.s-1","parameterCategory":1,"la1":30.2992,"la2":30.254,"lo1":-89.0895,"lo2":-89.0443,"dy":0.0025,"dx":0.0025,"nx":19,"ny":19,"refTime":"2026-03-14T09:00:00:Z","depth":0,"parameterNumber":2,"parameterNumberName":"U-component_of_WINDS"},"data":[0,0,0,3.2285,3.2284,3.2189,3.2188,3.2104,3.2103,0,0,0,0,0,0,0,0,0,0,0,3.2337,3.2337,3.2285,3.2284,3.2189,3.2188,3.2104,3.2103,0,0,0,0,0,0,0,0,0,0,0,3.2337,3.2337,3.2338,3.2283,3.2189,3.2188,3.2104,3.2162,0,0,0,0,0,0,0,0,0,0,3.2248,3.2319,3.2337,3.2338,3.2283,3.2189,3.2188,3.2164,3.2158,3.2163,0,3.2175,0,3.2138,3.21,3.21,0,0,0,3.2265,3.2324,3.2277,3.2338,3.2282,3.2189,3.2226,3.216,3.2154,3.2156,3.2173,3.2169,3.2137,3.21,3.21,3.2191,3.2193,0,0,3.2271,3.2332,3.2282,3.2274,3.2293,3.223,3.2224,3.2156,3.2178,3.2173,3.2166,3.2135,3.2099,3.2099,3.219,3.2192,0,0,0,3.2298,3.2337,3.2291,3.2279,3.2259,3.2227,3.222,3.2181,3.2161,3.2165,3.2134,3.2099,3.2099,3.2188,3.2191,3.2314,0,0,0,3.23,3.2353,3.2294,3.2331,3.2261,3.2219,3.2248,3.2166,3.2156,3.2135,3.2099,3.2098,3.2187,3.219,3.2308,3.2362,0,0,0,3.2335,3.2356,3.2351,3.2334,3.2296,3.2219,3.2194,3.2162,3.2139,3.21,3.2098,3.2186,3.2189,3.2302,3.2352,3.2404,0,0,0,3.239,3.2461,3.2354,3.2422,3.2297,3.2297,3.2194,3.219,3.2172,3.2099,3.2187,3.219,3.23,3.2346,3.2398,3.2459,3.249,0,0,3.2514,3.2479,3.2514,3.2415,3.245,3.2307,3.2359,3.2283,3.2222,3.2205,3.2206,3.231,3.2351,3.2403,3.2645,3.267,0,0,0,3.2574,3.2601,3.2596,3.2583,3.2528,3.2484,3.2394,3.2366,3.2349,3.2226,3.2341,3.2364,3.2391,3.2417,3.2439,3.2458,3.2205,3.2205,3.2205,3.2838,3.2758,3.2811,3.272,3.2709,3.2616,3.2598,3.2544,3.2465,3.2494,3.2488,3.2645,3.2677,3.2693,3.2714,3.2514,3.2514,3.2515,3.2515,3.3013,3.3037,3.2933,3.2947,3.2862,3.2872,3.2786,3.273,3.2727,3.2642,3.2662,3.2577,3.2723,3.2738,3.2523,3.2522,3.2521,3.252,3.252,3.3176,3.3174,3.314,3.3113,3.3101,3.3006,3.3008,3.293,3.2856,3.2876,3.2861,3.2859,3.2846,3.2875,3.2875,3.2876,3.2876,3.2877,3.2877,3.3359,3.3316,3.3328,3.3278,3.3259,3.3225,3.3134,3.3113,3.3069,3.3012,3.3011,3.293,3.2753,3.271,3.2885,3.2884,3.2883,3.2882,3.2881,3.3563,3.3505,3.3524,3.3506,3.344,3.3434,3.3335,3.33,3.3271,3.3275,3.3189,3.3072,3.3029,3.3011,3.2974,3.3207,3.3207,3.3207,3.3207,3.37,3.3672,3.3674,3.365,3.3618,3.3531,3.3555,3.3485,3.3403,3.338,3.3336,3.3281,3.3267,3.3232,3.3209,3.3174,3.3452,3.3452,3.3453,3.3821,3.3787,3.3822,3.3743,3.3686,3.3639,3.3658,3.3635,3.3529,3.3461,3.3361,3.335,3.3261,3.3237,3.3165,3.3131,3.3065,0,0]},{"header":{"parameterUnit":"m.s-1","parameterCategory":1,"la1":30.2992,"la2":30.254,"lo1":-89.0895,"lo2":-89.0443,"dy":0.0025,"dx":0.0025,"nx":19,"ny":19,"refTime":"2026-03-14T09:00:00:Z","depth":0,"parameterNumber":3,"parameterNumberName":"V-component_of_WINDS"},"data":[0,0,0,7.0467,7.0472,7.0701,7.0702,7.0971,7.0974,0,0,0,0,0,0,0,0,0,0,0,7.0391,7.0393,7.0467,7.0473,7.0701,7.0702,7.0971,7.0974,0,0,0,0,0,0,0,0,0,0,0,7.039,7.0392,7.0394,7.0473,7.0701,7.0702,7.097,7.0805,0,0,0,0,0,0,0,0,0,0,7.0586,7.0509,7.0392,7.0394,7.0475,7.0701,7.0702,7.0797,7.0815,7.0859,0,7.0901,0,7.0942,7.0991,7.0991,0,0,0,7.0478,7.0493,7.0564,7.0395,7.0477,7.07,7.0599,7.0807,7.0828,7.0883,7.0905,7.0916,7.0946,7.0992,7.0993,7.1242,7.1242,0,0,7.0465,7.0426,7.0549,7.0576,7.0546,7.0592,7.0606,7.082,7.0839,7.0906,7.0922,7.0951,7.0994,7.0996,7.1241,7.1242,0,0,0,7.0425,7.0417,7.0483,7.0565,7.0608,7.0599,7.0615,7.083,7.0855,7.0925,7.0954,7.0995,7.0998,7.124,7.1241,7.1249,0,0,0,7.0418,7.0394,7.0477,7.0455,7.0604,7.0723,7.062,7.084,7.0865,7.0953,7.0995,7.1001,7.1239,7.1241,7.1246,7.1257,0,0,0,7.0379,7.039,7.042,7.0452,7.055,7.0721,7.0758,7.0846,7.0883,7.0992,7.1002,7.1238,7.124,7.1244,7.1254,7.1309,0,0,0,7.0325,7.0423,7.042,7.054,7.0548,7.0726,7.0757,7.089,7.0985,7.0997,7.1239,7.1241,7.1244,7.1252,7.1307,7.1347,7.1361,0,0,7.0427,7.0434,7.0508,7.0512,7.0681,7.0694,7.0862,7.0984,7.1027,7.1166,7.1173,7.1247,7.1254,7.1309,7.1458,7.1469,0,0,0,7.0527,7.0579,7.0632,7.0723,7.0821,7.0903,7.1004,7.1048,7.1169,7.1093,7.1285,7.129,7.1323,7.1344,7.1353,7.1383,7.125,7.125,7.125,7.0613,7.0667,7.0792,7.0872,7.0958,7.1061,7.1134,7.1211,7.1238,7.1282,7.1323,7.1408,7.1431,7.1438,7.1468,7.1351,7.1351,7.1351,7.1351,7.0765,7.0846,7.0882,7.1015,7.1068,7.1179,7.128,7.1295,7.1402,7.1382,7.1414,7.1385,7.1449,7.1477,7.1352,7.1352,7.1352,7.1352,7.1352,7.0825,7.0873,7.0928,7.1063,7.1159,7.1236,7.1338,7.1383,7.1426,7.1458,7.1503,7.1503,7.1506,7.1477,7.1478,7.1478,7.1478,7.1478,7.1479,7.0864,7.0926,7.1009,7.1121,7.1183,7.1271,7.1374,7.1435,7.1513,7.1537,7.1538,7.1557,7.1447,7.1416,7.1483,7.1483,7.1482,7.1481,7.1481,7.0992,7.0971,7.1098,7.1161,7.1294,7.1384,7.1442,7.1562,7.1619,7.1666,7.168,7.1592,7.1601,7.1594,7.1569,7.1671,7.1671,7.1671,7.1671,7.104,7.1051,7.119,7.1287,7.1387,7.1452,7.1588,7.1667,7.1745,7.1782,7.1775,7.1746,7.1737,7.1751,7.1741,7.1717,7.1855,7.1856,7.1856,7.112,7.1142,7.1252,7.1332,7.1439,7.1527,7.1656,7.1761,7.1844,7.1864,7.1811,7.1804,7.1758,7.1741,7.1756,7.1739,7.1697,0,0]}]]